Weather History for Augusta, GA

Change the Weather History Date:

Friday, December 28, 2012

  Actual Average Record
Temperature  
Mean Temperature 43 °F -  
Max Temperature 52 °F 52 °F 74 °F (2007)
Min Temperature 34 °F 36 °F 24 °F (2010)
Degree Days  
Heating Degree Days 22    
Month to date heating degree days 303  
Moisture  
Dew Point 33 °F    
Average Humidity 70    
Maximum Humidity 82    
Minimum Humidity 48    
Precipitation  
Precipitation 0.00 in - - ()
Month to date precipitation 3.61  
Year to date precipitation 43.86  
Sea Level Pressure  
Sea Level Pressure 30.06 in    
Wind  
Wind Speed 3 mph (ESE)    
Max Wind Speed 9 mph    
Max Gust Speed 13 mph    
Visibility 10 miles    
Events      
Averages and records for this station are not official NWS values.
T = Trace of Precipitation, MM = Missing Value Source: NWS Daily Summary

Daily Weather History Graph

Daily Weather History Graph

Search for Another Location

Airport:

Trip Planner

Search our weather history database for the weather conditions in past years. The results will help you decide how hot, cold, wet, or windy it might be!

Date:

Astronomy

Dec. 28, 2012 Rise Set
Actual Time 7:31 AM EST 5:28 PM EST
Civil Twilight 7:03 AM EST 5:56 PM EST
Nautical Twilight 6:32 AM EST 6:27 PM EST
Astronomical Twilight 6:02 AM EST 6:57 PM EST
Moon 6:01 PM EST (12/28) 7:27 AM EST (12/28)
Length of Visible Light 10h 52m
Length of Day
9h 57m
Full, 100% of the Moon is Illuminated
Dec 28
Full
Jan 4
Last Quarter
Jan 11
New
Jan 18
First Quarter
Jan 26
Full

Hourly Weather History & Observations

Time (EST) Temp. Windchill Dew Point Humidity Pressure Visibility Wind Dir Wind Speed Gust Speed Precip Events Conditions
12:53 AM 37.9 °F 32.1 °F 30.9 °F 76% 30.07 in 10.0 mi NNW 8.1 mph - N/A   Clear
1:53 AM 37.0 °F - 30.9 °F 79% 30.07 in 10.0 mi Calm Calm - N/A   Clear
2:53 AM 37.0 °F - 30.9 °F 79% 30.09 in 10.0 mi Calm Calm - N/A   Clear
3:53 AM 36.0 °F - 30.9 °F 82% 30.09 in 10.0 mi Calm Calm - N/A   Clear
4:53 AM 36.0 °F - 30.9 °F 82% 30.07 in 10.0 mi Calm Calm - N/A   Clear
5:53 AM 35.1 °F - 30.9 °F 85% 30.11 in 10.0 mi Calm Calm - N/A   Clear
6:53 AM 36.0 °F 32.1 °F 30.9 °F 82% 30.12 in 10.0 mi East 4.6 mph - N/A   Clear
7:53 AM 35.1 °F - 30.9 °F 85% 30.14 in 10.0 mi Calm Calm - N/A   Clear
8:53 AM 37.0 °F 31.6 °F 30.0 °F 76% 30.14 in 10.0 mi East 6.9 mph - N/A   Clear
9:53 AM 39.0 °F 34.0 °F 30.9 °F 73% 30.13 in 10.0 mi East 6.9 mph - N/A   Clear
10:53 AM 42.1 °F - 33.1 °F 70% 30.14 in 10.0 mi Calm Calm - N/A   Clear
11:53 AM 46.0 °F - 33.1 °F 61% 30.13 in 10.0 mi Calm Calm - N/A   Partly Cloudy
1:53 PM 51.1 °F - 33.1 °F 50% 30.05 in 10.0 mi Calm Calm - N/A   Clear
2:53 PM 51.1 °F - 32.0 °F 48% 30.04 in 10.0 mi East 3.5 mph - N/A   Mostly Cloudy
3:53 PM 51.1 °F - 34.0 °F 52% 30.03 in 10.0 mi SSE 3.5 mph - N/A   Overcast
4:53 PM 51.1 °F - 34.0 °F 52% 30.03 in 10.0 mi SSE 4.6 mph - N/A   Overcast
5:53 PM 50.0 °F - 35.1 °F 57% 30.03 in 10.0 mi SE 4.6 mph - N/A   Partly Cloudy
6:53 PM 48.9 °F - 36.0 °F 61% 30.03 in 10.0 mi SE 4.6 mph - N/A   Clear
8:53 PM 46.9 °F - 37.0 °F 68% 30.01 in 10.0 mi ESE 5.8 mph - N/A   Clear
9:53 PM 46.9 °F - 37.0 °F 68% 29.96 in 10.0 mi ESE 6.9 mph - N/A   Mostly Cloudy
10:53 PM 46.9 °F - 37.9 °F 71% 29.93 in 10.0 mi East 5.8 mph - N/A   Clear
11:53 PM 46.9 °F - 39.0 °F 74% 29.92 in 10.0 mi Variable 4.6 mph - N/A   Overcast